ASTRA 5B

Last updated on Jan. 26, 2020, 4:40 a.m. UTC

1 39617U 14011B   20025.49068934  .00000147  00000-0  00000-0 0  9997
2 39617   0.0478 309.8794 0003448 359.3445  23.1578  1.00269092 21254
UTC
Height (km)
Latitude
Longitude
Inclination
Orbital Period
UTC large
Height (km)
Speed (km/s)
/
Latitude / Longitude
Inclination (degrees)
Orbital Period (minutes)
Azimuth
Elevation
Range (km)
Doppler Factor
iOS Compass Heading
iOS Angle

Next 30 passes for location: Hong Kong

Rise time Rise Azimuth (degrees) Set time Set Azimuth (degrees) Duration Max altitude (degrees)

No matching passes for this satellites